Regional Weather Roundup
Issued by NWS

Home | Current Version | Previous Version | Text Only | Print | Product List | Glossary Off
Versions: 1 2 3 4 5 6 7 8 9 10 11 12 13 14 15 16 17 18 19 20 21 22 23 24 25 26 27

000
ASUS45 KCYS 300410
RWRWY

WYOMING REGIONAL WEATHER ROUNDUP
NATIONAL WEATHER SERVICE CHEYENNE WY
1000 PM MDT FRI JUL 29 2016

NOTE:  "FAIR" INDICATES FEW OR NO CLOUDS BELOW 12,000 FEET
WITH NO SIGNIFICANT WEATHER AND/OR OBSTRUCTIONS TO VISIBILITY.

WYZ001-300500-
YELLOWSTONE NATIONAL PARK

CITY           SKY/WX    TMP DP  RH WIND       PRES   REMARKS
LK YELLOWSTONE   N/A     57  40  52 CALM      30.26R
W YELLOWSTONE  NOT AVBL

$$
WYZ002>013-054>058-071-098>099-300500-
NORTHERN WYOMING

CITY           SKY/WX    TMP DP  RH WIND       PRES   REMARKS
JACKSON        FAIR      66  34  30 E8        30.12S
CODY           FAIR      66  55  68 CALM      30.09S
GREYBULL       FAIR      78  45  30 SE3       29.97S
WORLAND        FAIR      77  43  29 NE5       30.00R
SHERIDAN       FAIR      73  48  41 CALM      30.02R
BUFFALO        MOCLDY    71  49  45 SW7       30.10R
GILLETTE       FAIR      69  53  56 SE10      30.05R
HULETT         FAIR      66  54  63 S7        30.07R
NEWCASTLE      FAIR      66  52  59 SE10      30.08R

$$
WYZ014>020-022>026-101>103-300500-
CENTRAL WYOMING

CITY           SKY/WX    TMP DP  RH WIND       PRES   REMARKS
BIG PINEY      FAIR      61  33  35 NW12      30.18R
PINEDALE       FAIR      63  34  34 NW5       30.19R
DUBOIS         FAIR      64  41  42 S3        30.21R
LANDER         FAIR      72  44  36 W6        30.11R
RIVERTON       FAIR      73  44  35 E9        30.10R
CASPER         FAIR      66  53  63 NE7       30.10R
DOUGLAS        FAIR      63  55  75 SE12      30.07F

$$
WYZ021-027>030-104>119-300500-
SOUTHERN WYOMING

CITY           SKY/WX    TMP DP  RH WIND       PRES   REMARKS
EVANSTON       FAIR      74  30  19 W9        30.21R
KEMMERER         N/A    N/A N/A N/A N7        30.21R
FORT BRIDGER   FAIR      71  26  19 W8        30.22R
ROCK SPRINGS   FAIR      76  23  14 W13       30.14R
DIXON          FAIR      70  22  16 CALM      30.12R
RAWLINS        FAIR      69  46  43 NE13      30.15R
SARATOGA       FAIR      64  39  39 SE3       30.15R
LARAMIE        FAIR      62  48  60 SE13G22   30.23R
CHEYENNE       FAIR      61  54  77 SE9       30.20R
TORRINGTON     FAIR      62  58  86 N5        30.11R
PINE BLUFFS    FAIR      64  55  72 SE14G21   30.15R

$$




USA.gov is the U.S. government's official web portal to all federal, state and local government web resources and services.